TimePST,TemperatureF,Dew PointF,Humidity,Sea Level PressureIn,VisibilityMPH,Wind Direction,Wind SpeedMPH,Gust SpeedMPH,PrecipitationIn,Events,Conditions,WindDirDegrees,DateUTC
12:53 AM,53.1,48.0,83,29.95,10.0,ENE,4.6,-,N/A,,Mostly Cloudy,60,2011-11-24 08:53:00
1:53 AM,50.0,46.9,89,29.94,10.0,Calm,Calm,-,N/A,,Partly Cloudy,0,2011-11-24 09:53:00
2:53 AM,51.8,48.2,88,29.94,10.0,East,5.8,-,N/A,,Overcast,90,2011-11-24 10:53:00
3:53 AM,53.1,46.9,80,29.94,10.0,East,5.8,-,N/A,,Scattered Clouds,90,2011-11-24 11:53:00
5:53 AM,53.6,48.2,82,29.97,10.0,North,4.6,-,N/A,,Overcast,10,2011-11-24 13:53:00
6:53 AM,55.0,45.0,69,29.98,10.0,ESE,6.9,-,N/A,,Mostly Cloudy,110,2011-11-24 14:53:00
7:53 AM,55.9,46.0,69,30.00,10.0,ENE,6.9,-,N/A,,Mostly Cloudy,60,2011-11-24 15:53:00
8:53 AM,57.9,46.0,65,30.02,10.0,ENE,3.5,-,N/A,,Overcast,60,2011-11-24 16:53:00
9:53 AM,59.0,46.9,64,30.04,10.0,ESE,4.6,-,N/A,,Scattered Clouds,120,2011-11-24 17:53:00
10:53 AM,62.1,46.9,58,30.05,10.0,SSE,6.9,-,N/A,,Scattered Clouds,150,2011-11-24 18:53:00
12:53 PM,61.0,48.9,64,30.04,10.0,Variable,5.8,-,N/A,,Scattered Clouds,0,2011-11-24 20:53:00
1:53 PM,61.0,48.9,64,30.04,10.0,SSW,3.5,-,N/A,,Mostly Cloudy,210,2011-11-24 21:53:00
2:53 PM,61.0,46.9,60,30.04,10.0,WSW,6.9,-,N/A,,Mostly Cloudy,250,2011-11-24 22:53:00
3:53 PM,61.0,48.0,62,30.05,10.0,West,9.2,-,N/A,,Overcast,280,2011-11-24 23:53:00
4:53 PM,57.0,48.9,74,30.05,10.0,West,8.1,-,N/A,,Scattered Clouds,280,2011-11-25 00:53:00
5:53 PM,55.0,48.9,80,30.06,10.0,Calm,Calm,-,N/A,,Clear,0,2011-11-25 01:53:00
6:53 PM,55.0,48.0,77,30.06,10.0,NNE,3.5,-,N/A,,Clear,30,2011-11-25 02:53:00
7:53 PM,51.1,46.9,86,30.07,10.0,WNW,3.5,-,N/A,,Clear,300,2011-11-25 03:53:00
8:53 PM,51.1,46.9,86,30.08,10.0,Variable,4.6,-,N/A,,Clear,0,2011-11-25 04:53:00
9:53 PM,48.0,45.0,89,30.10,10.0,Calm,Calm,-,N/A,,Clear,0,2011-11-25 05:53:00
10:53 PM,52.0,46.0,80,30.10,10.0,Calm,Calm,-,N/A,,Clear,0,2011-11-25 06:53:00